Regional Weather Roundup
Issued by NWS Charleston, SC

Current Version | Previous Version | Graphics & Text | Print | Product List | Glossary On
Versions: 1 2 3 4 5 6 7 8 9 10 11 12 13 14 15 16 17 18 19 20 21 22 23 24 25 26 27 28 29 30 31 32 33 34 35 36 37 38 39 40 41 42 43 44 45 46 47 48 49 50
000 ASUS42 KCHS 130828 RWRCHS REGIONAL WEATHER ROUNDUP NATIONAL WEATHER SERVICE CHARLESTON SC 300 AM EST SAT FEB 13 2016 NOTE: "FAIR" INDICATES FEW OR NO CLOUDS BELOW 12,000 FEET WITH NO SIGNIFICANT WEATHER AND/OR OBSTRUCTIONS TO VISIBILITY. NOT ALL STATIONS ARE QUALITY CONTROLLED BY THE NATIONAL WEATHER SERVICE. USE DATA WITH CAUTION...ESPECIALLY DEWPOINT OBSERVATIONS. SCZ027-030-031-034>040-042>050-130900- ...SOUTHEAST SOUTH CAROLINA... CITY SKY/WX TMP DP RH WIND PRES REMARKS N CHARLESTON PTCLDY 41 33 73 W8 30.08S WATERFRONT PRK N/A 42 39 89 VRB3 29.92F MOUNT PLEASANT FAIR 37 36 93 N6 30.09R WCI 33 JOHNS ISLAND FAIR 39 37 93 W6 30.09S WCI 35 PINOPOLIS N/A 39 34 81 NE7 30.01R WCI 34 MONCKS CORNER FAIR 30 28 93 CALM 30.10R SUMMERVILLE FAIR 37 34 87 N3 30.11R BEAUFORT MCAS CLEAR 45 36 70 NW8 30.11S BEAUFORT ARPT FAIR 45 36 70 NW6 30.11R HILTON HEAD IS CLEAR 46 39 76 NW6 30.12S WALTERBORO SUNNY 37 36 93 NW6 30.12R WCI 33 ALLENDALE FAIR 43 32 65 VRB5 30.11R ...SOUTHERN MIDLANDS AND PEE DEE... CITY SKY/WX TMP DP RH WIND PRES REMARKS GEORGETOWN FAIR 30 28 93 CALM 30.10R KINGSTREE FAIR 28 27 93 CALM 30.10R ORANGEBURG CLEAR 37 31 78 N3 30.10R BARNWELL FAIR 43 32 65 CALM 30.12R AIKEN FAIR 37 28 70 NW8 30.13R WCI 31 MANNING FAIR 28 25 86 CALM 30.10R COLUMBIA CLEAR 30 25 81 NW5 30.10R WCI 25 SUMTER CLEAR 33 27 78 W5 30.06S WCI 28 FLORENCE CLEAR 26 25 96 NW5 30.08R WCI 20 MYRTLE BEACH CLEAR 30 21 69 NW5 30.10R WCI 25 N MYRTLE BEACH CLEAR 32 28 85 CALM 30.07R $$ GAZ063-065-086>088-099>101-113>116-118-119-134>141-150-130900- ...SOUTHEAST GEORGIA... CITY SKY/WX TMP DP RH WIND PRES REMARKS SAVANNAH ARPT PTCLDY 45 38 76 NW6 30.13R HUNTER AAF PTCLDY 46 38 73 NW6 30.10R FORT STEWART CLEAR 50 33 52 NW8G20 30.11S STATESBORO PTCLDY 43 33 67 NW5 30.13S SYLVANIA MOSUNNY 42 36 80 NW6 30.14R CLAXTON FAIR 48 37 65 W9 30.15R ...CSRA...CENTRAL AND FAR SOUTHEAST GEORGIA... CITY SKY/WX TMP DP RH WIND PRES REMARKS THOMSON CLEAR 40 31 70 W6 30.18R WCI 36 AUGUSTA-BUSH CLEAR 42 29 59 W9 30.12S AUGUSTA-DANIEL CLEAR 42 28 57 W8 30.12R SWAINSBORO FAIR 43 32 65 NW8 30.15R VIDALIA PTCLDY 46 32 57 NW7 30.15S EASTMAN FAIR 47 32 57 NW3 30.19S HAZLEHURST FAIR 51 34 53 NW5 30.15R ALMA CLEAR 52 35 52 NW8 30.14S WAYCROSS CLEAR 52 42 68 N6 30.14S JESUP FAIR 55 41 58 NW6 30.13S BAXLEY FAIR 52 36 54 NW6 30.14S BRUNSWICK CLEAR 52 43 71 CALM 30.13S SAINT SIMONS CLEAR 55 45 68 NW7 30.12R $$ SCZ027-028-034-036>038-045-046-048>050-GAZ119-141-130900- ...LAKE AND SUPPLEMENTAL COASTAL OBSERVATIONS... STATION/POSITION TIME TEMP WIND PRES WAVE SWELL AIR SEA DIR/SP/G HT/PER HT/PER/DIR (UTC) (F) (DEG/KT/KT) (MB) (FT/S) (FT/S/D) WINYAH BAY 0700 34 320/ 4 1017.0 LAKE MURRAY 0700 38 280/ 2/ 3 1018.3S ACE BASIN NERRS 0700 45 340/ 3 1019.0R FORT PULASKI 0800 47 50 330/ 5/ 7 1020.0R SAPELO ISLAND 0800 53 340/ 9 1020.0R $$ ANZ835-935-AMZ111-154-330-350-352-354-370-450-454-472-130900- ...C-MAN AND BUOY OBSERVATIONS... STATION/POSITION TIME TEMP WIND PRES WAVE SWELL AIR SEA DIR/SP/G HT/PER HT/PER/DIR (UTC) (F) (DEG/KT/KT) (MB) (FT/S) (FT/S/D) BUOY 41004 0750 53 68 310/ 14/ 17 1017.8R 4/ 6 2/10 BUOY 41008 0750 55 53 340/ 19/ 23 1019.3R 2/ 6 FOLLY BEACH CMAN 0800 41 270/ 4/ 6 1018.7F CAPERS NEARSHORE 0708 46 290/ 4/ 6 1018.3R FRIPP NEARSHORE 0700 47 330/ 14/ 16 1018.6R STATION/POSITION TIME TEMP WIND PRES WAVE SWELL AIR SEA DIR/SP/G HT/PER HT/PER/DIR (UTC) (F) (DEG/KT/KT) (MB) (FT/S) (FT/S/D) 5E ST. MARYS GA 0721 56 N/A 2/ 5 FRYING PAN BUOY 0800 44 52 320/ 16/ 17 1018.0R BUOY 41025 0750 41 71 330/ 21/ 27 1015.6F 5/ 8 3/ 70/ 8 CAPE LOOKOUT NC NOT AVBL BUOY 41002 0750 60 68 320/ 16/ 21 N/A 14/10 11/260/10 BUOY 41010 0720 70 72 1019.1F ST AUGUSTINE FL 0800 58 58 270/ 7/ 8 1020.9F $$

USA.gov is the U.S. government's official web portal to all federal, state and local government web resources and services.